Please Login or Register

All Events

You are viewing ALL events starting from the newest to the oldest.  Use the Search Filters to narrow your search by event text, location and/or category.  Past events with online searchable results will be shown with the "Results" badge.

ReindeerRun.jpg
9th Annual Reindeer Run
Download as iCal file
Friday, December 01, 2017, 07:00pm

JR Martin Park Republic, MO

The Republic Parks & Recreation Department invites you to participate in the 9th Annual Reindeer Run 5K to be held on Friday, December 1, 2017 at JR Martin Park.

Registered 5K participants will receive an official Reindeer Run 5K Long Sleeve T-Shirt. “Must Register by November 17 for Guaranteed Event Shirt”

 

 

Contact Jennafer Mayfield - or call Republic Parks & Rec. at 417.732.3500 for more information

 

Results

PositionBibFirst NameLast NameFinishPaceAgeGenderCityStateDivision
1459GRANTMUSICK 17:35.67 5:4013MSPRINGFIELDMO5K
2744TRISTANGADDIS 17:52.56 5:4615MASH GROVE5K
3342BROOKLYNCREEHAN 18:48.30 6:0413MSPRINGFIELDMO5K
4343JACKCREEHAN 19:01.06 6:0813MSPRINGFIELDMO5K
5420ANTHONYMANCUSO 19:43.96 6:2215MSPRINGFIELDMO5K
6417JACOBLUMB 19:50.16 6:2419MAVAMO5K
7405ROSIELAUGHLIN 20:24.63 6:3552FSPRINGFIELDMO5K
8637MILESSCHMIDT 20:55.70 6:4525MREPUBLICMO5K
9691MICHAELHAWKINS 21:02.52 6:4758MSPRINGFIELDMO5K
10345CARLOSCUEVAS 21:18.76 6:5233MROGERSVILLEMO5K
11408EDENLITTLE 21:21.92 6:5315FAVAMO5K
12495ADAMSTIPP 21:44.83 7:0134MMT. VERNONMO5K
13631MARCSTEPHENS 21:55.98 7:0441MSPRINGFIELDMO5K
14710RACHELSHUCK 22:08.05 7:0838F5K
15317CYNTHIABRADLEY 22:30.84 7:1553FSPRINGFIELDMO5K
16456HAYDENMITCHELL 22:41.89 7:1911MREPUBLICMO5K
17402LIZKYGER 22:52.43 7:2358FOLDFIELDMO5K
18625KAEMYNBEKEMEIER 23:03.60 7:2613FREPUBLICMO5K
19698CHARLIEHUNGERFORD 23:04.54 7:2657MSPRINGFIELDMO5K
20613JEFFWILLIAMS 23:16.46 7:3050MNIXAMO5K
21713MICHAELWEEKS 23:16.73 7:3037MREPUBLIC5K
22450JUSTINMAYFIELD 23:23.36 7:3332MBILLINGSMO5K
23362CLAYTONFARR 23:30.44 7:3516MREPUBLICMO5K
24389REBEKAHJOHNSTON 23:31.60 7:3518FSPRINGFIELDMO5K
25461ROBERTMUSICK 23:39.93 7:3851MSPRINGFIELDMO5K
26401DOUGKRAMER 24:04.97 7:4659MCLEVERMO5K
27609CHRISWHITE 24:10.32 7:4853MJOPLINMO5K
28327TOMCHEFFINS 24:19.76 7:5163MSHIRLEYAR5K
29694SHIAWASTEWART 24:22.75 7:5242FCLEVERMO5K
30647BETHANYSCULLAWL 24:26.59 7:5332FREPUBLICMO5K
31358JAREDDRYE 24:45.21 7:5930MNIXAMO5K
32489RYLEESIMONS 24:52.14 8:0112FREPUBLICMO5K
33394PAULAKAVANAGH 25:05.04 8:0537FROGERSVILLEMO5K
34626MICHELLEBEKEMEIER 25:07.24 8:0641FREPUBLICMO5K
35388GRACEJOHNSON 25:23.43 8:1112FROGERSVILLEMO5K
36602MEREDITHVIGNEAUX 25:24.04 8:1223FBROOKLINEMO5K
37273UNKNOWNUNKNOWN 25:24.17 8:125K
38649SABRINAMASON 25:31.49 8:1437FREPUBLICMO5K
39304STUACOSTA 25:38.33 8:1660MSPRINGFIELDMO5K
40348HAROLDCUNNINGHAM 25:38.99 8:1654MMT. VERNONMO5K
41384JONHOSKINS 25:44.23 8:1843MGALENAMO5K
42689ROBERTHANSON 25:45.26 8:1866MSPRINGFIELDMO5K
43743DANELIEBELD 25:49.65 8:2034FSPRINGFIELD5K
44711JASONMULLINS 25:52.97 8:2142MREPUBLIC5K
45320MARKBROWN 25:54.23 8:2142MSPRINGFIELDMO5K
46482COLTONRICE 25:54.52 8:2119MCLEVERMO5K
47354STEPHANIEDAVENPORT 25:56.18 8:2235FSPRINGFIELDMO5K
48416CADENCELUGAR 26:25.03 8:3110FREPUBLICMO5K
49745COLTONLUGAR 26:25.04 8:3114MREPUBLIC5K
50603ANGELAVINCENT 26:25.33 8:3149FPIERCE CITYMO5K
51675MAGGIEMASON 26:29.09 8:3312FREPUBLICMO5K
52361PHILLIPEMLING 26:35.76 8:3526MSPRINGFIELDMO5K
53454ROYMERENESS 26:45.28 8:3844MOZARKMO5K
54413AUDREYLOUGHRIDGE 26:51.00 8:4022FSPRINGFIELDMO5K
55496CARTERSTOELZEL 26:52.80 8:4016MNIXAMO5K
56324LAURACARPENTER 26:57.25 8:4220FBOLIVARMO5K
57319AUSTINBROWN 27:04.84 8:4414MSPRINGFIELDMO5K
58331KATIECLOPTON 27:19.86 8:4935FNIXAMO5K
59481ELSARHODES 27:21.78 8:498FSPRINGFIELDMO5K
60373DOUGGRAVES 27:26.21 8:5148MREPUBLICMO5K
61487STEVESHELTON 27:26.64 8:5143MREPUBLICMO5K
62476LEANNERAGSDALE 27:27.13 8:5143FREPUBLICMO5K
63351MELISSADALTON 27:30.24 8:5237FAVAMO5K
64350ABIDALTON 27:30.24 8:529FAVAMO5K
65676MARKMASON 27:32.13 8:5335MREPUBLICMO5K
66677REECEMASON 27:32.92 8:539MREPUBLICMO5K
67679KREGSIMONS 27:34.59 8:5455MOZARKMO5K
68363KIMFARR 27:56.88 9:0143FREPUBLICMO5K
69608STANLEYWEEKS 28:03.12 9:0363MREPUBLICMO5K
70391GRANTJONES 28:13.47 9:068MSPRINGFIELDMO5K
71347LEEANNCUEVAS 28:21.34 9:0934FROGERSVILLEMO5K
72639RYANCULBERTSON-FAEGRE 28:24.21 9:1029MSPRINGFIELDMO5K
73480CREASARHODES 28:31.90 9:1241FSPRINGFIELDMO5K
74371MATTHEWGIGLIO 28:32.29 9:129MBOLIVARMO5K
75337CECILYCORNELIUS-WHITE 28:36.28 9:1443FSPRINGFIELDMO5K
76703CHRISSTOCKER 28:43.54 9:1634MREPUBLIC5K
77706KAYLASTOCKER 28:43.69 9:1633FREPUBLIC5K
78381EVANHELTON 28:45.58 9:1613MSTRAFFORDMO5K
79618KATHRYNWOHNOUTKA 28:48.51 9:1751FBOLIVARMO5K
80346CORLIECUEVAS 28:49.11 9:1812FROGERSVILLEMO5K
81323LAURABYKOWSKI 28:52.36 9:1940FREPUBLICMO5K
82305TAMMYAMES 28:54.91 9:1947FSPRINGFIELDMO5K
83322BRIANBYKOWSKI 28:56.14 9:2040MREPUBLICMO5K
84407DEBBIELEHMAN 29:03.23 9:2257FLAMARMO5K
85630MARYARNOLD 29:24.31 9:2941FBATTLEFIELDMO5K
86686AVERIEKEELING 29:25.15 9:299FSPRINGFIELDMO5K
87687BRADLANGDON 29:27.52 9:3029MBATTLEFIELDMO5K
88688WHITNEYLANGDON 29:27.70 9:3028FBATTLEFIELDMO5K
89488JAMESSIMONS 29:28.46 9:3043MREPUBLICMO5K
90370ERINGIGLIO 29:29.47 9:3140FBOLIVARMO5K
91409EMILYLITTLE 29:29.70 9:3117FAVAMO5K
92369CLAIREGIGLIO 29:31.31 9:3111FBOLIVARMO5K
93374SUSANGRAVES 29:33.90 9:3247FREPUBLICMO5K
94458KIMBERLYMOYNA 29:49.62 9:3751FNIXAMO5K
95499NICKTHIEMAN 29:51.53 9:3849MBRANSONMO5K
96633KEYVANSIERRA 30:13.13 9:4528MSPRINGFIELDMO5K
97634TAWNYWAGNER 30:17.81 9:4635FNIXAMO5K
98365VANCEFREE 30:28.17 9:5050MSPRINGFIELDMO5K
99685TONYAKEELING 30:46.92 9:5546FSPRINGFIELDMO5K
100692CATHYHAWKINS 30:51.18 9:5753FSPRINGFIELDMO5K
101382KATHYHENRY 30:52.08 9:5745FWASHBURNMO5K
102632SHANNONDICKINSON 31:09.59 10:0327FSPRINGFIELDMO5K
103460PATRICIAMUSICK 31:12.90 10:0447FSPRINGFIELDMO5K
104312HANNAHBLACK 31:18.28 10:0622FREPUBLICMO5K
105612CHERYLWILLIAMS 31:19.92 10:0653FCRANEMO5K
106377GRANTHARRISON 31:32.53 10:109MMARSHFIELDMO5K
107472DAVEPRIGEL 31:46.20 10:1562MBROOKLINEMO5K
108616JEREMYWILLMAN 31:46.38 10:1542MREPUBLICMO5K
109617SHANNONWILLMAN 31:46.75 10:1546FREPUBLICMO5K
110607ADENWATSON 31:46.88 10:1540MNIXAMO5K
111606OWENWATSON 31:47.13 10:158MNIXAMO5K
112453MISSYMELVIN 31:56.60 10:1842FNIXAMO5K
113642CHRISTINEGORMAN 32:06.79 10:2135FREPUBLICMO5K
114486MAGGIESANDERS 32:14.43 10:2421FBOLIVARMO5K
115353SHELBYDAVENPORT 32:21.96 10:2622FSPRINGFIELDMO5K
116492RYDERSMITH 32:25.46 10:2711MREPUBLICMO5K
117643ALANGORMAN 32:52.11 10:3645MREPUBLICMO5K
118475JULIARADTKE 32:57.77 10:3814FREPUBLICMO5K
119379CAREYHEAD 33:04.34 10:4044FAURORAMO5K
120424RACHELMATHISON 33:19.91 10:4534FSPRINGFIELDMO5K
121385LUKEHUFFMAN 33:23.00 10:4610MMARSHFIELDMO5K
122759REEDHUFTUTTON 33:23.15 10:4641MMARSHFIELD5K
123360SPENCERDRYE 33:29.07 10:4828FNIXAMO5K
124359MICHELLEDRYE 33:29.07 10:4858FNIXAMO5K
125682RODPENNINGTON 33:35.95 10:5063MSPRINGFIELDMO5K
126310KALLIEBEEBE 33:47.36 10:5435FNIXAMO5K
127392MELANIEJONES 34:06.06 11:0038FSPRINGFIELDMO5K
128466NICOLEOSBORNE 34:13.34 11:0235FREPUBLICMO5K
129464ELIOSBORNE 34:13.64 11:025MREPUBLICMO5K
130387NICKIJESKY 34:19.58 11:0439FOZARKMO5K
131340CHERICRANE 34:21.49 11:0545FREPUBLICMO5K
132399AUDRIANNAKOPEL 34:28.11 11:0722FSPRINGFIELDMO5K
133737CHRISTOPHERMILLS 34:30.40 11:0822MSPRINGFIELD5K
134334CHARLESCOLEMAN 34:40.99 11:1153MREEDS SPRINGMO5K
135333BECKYCOLEMAN 34:41.01 11:1144FREEDS SPRINGMO5K
136465MICAHOSBORNE 34:51.62 11:1537MREPUBLICMO5K
137697HALLIEHILL 35:05.67 11:1911FROGERSVILLEMO5K
138627JAILYNCOUNTRYMAN 35:11.04 11:219FBILLINGSMO5K
139455FRANKMILLER 35:32.87 11:2846MREPUBLICMO5K
140742ROBINSHAEFFER 35:34.77 11:2857FSPRINGFIELD5K
141493TRAVISSMITH 35:42.48 11:3140MREPUBLICMO5K
142462JULIENEUBURGER 35:46.15 11:3239FSPRINGFIELDMO5K
143484JOANROBERTS 35:48.44 11:3354FNIANGUAMO5K
144678CYNTHIASIMONS 35:59.89 11:3659FOZARKMO5K
145383DICKHENSON 36:04.84 11:3862MCLEVERMO5K
146314JULIETBOGGS 36:14.64 11:4110FMARSHFIELDMO5K
147315ROBERTBOGGS 36:15.01 11:4240MMARSHFIELDMO5K
148623BAILEYSOUTHARD 36:15.92 11:4223FSPRINGFIELDMO5K
149378JANUARYHARRISON 36:16.25 11:4241FMARSHFIELDMO5K
150624RHONDASOUTHARD 36:16.44 11:4254FBILLINGSMO5K
151316KATHYBOLTON 36:31.73 11:4759FWILLARDMO5K
152411OLIVIALOGAN 37:24.51 12:0413FNIXAMO5K
153406STEPHANIELEDBETTER 37:41.35 12:0935FWARSAWMO5K
154600BRIANUNDERHILL 37:42.45 12:1045MWILLARDMO5K
155601JULIEUNDERHILL 37:42.82 12:1045FWILLARDMO5K
156635JACQUELINEAVERS 37:51.77 12:1351FSTRAFFORDMO5K
157604LINDSEYWANNENMACHER 38:00.28 12:1535FSPRINGFIELDMO5K
158729TYLERGUNLOCK 38:00.36 12:1539MASH GROVE5K
159352RICHARDDATEMA 38:06.55 12:1750MSPRINGFIELDMO5K
160349MONICACUNNINGHAM 38:50.60 12:3231FSPRINGFIELDMO5K
161313LARRYBLADES 38:53.45 12:3371MREPUBLICMO5K
162696LAURENWILSON 39:10.80 12:3828FSTRAFFORDMO5K
163614AMANDAWILLIAMS 39:14.76 12:3936FSPRINGFIELDMO5K
164615ISABELLAWILLIAMS 39:15.26 12:409FSPRINGFIELDMO5K
165622LINDASMITH 39:15.83 12:4058FSPRINGFIELDMO5K
166397CLEAKLEEMAN 39:20.92 12:4170FMILLERMO5K
167680MUSETTEDODD 39:26.13 12:4343FELKLANDMO5K
168620LEEYOUNG 39:28.18 12:4448MREPUBLICMO5K
169693TERESAREED 39:28.92 12:4447FCRANEMO5K
170628GRACYNCOUNTRYMAN 39:32.47 12:456FBILLINGSMO5K
171400CLAUDIAKRAMER 39:33.64 12:4561FCLEVERMO5K
172309JENNIFERBAXTER 41:04.64 13:1539FBATTLEFIELDMO5K
173457MANDIMORELOCK 41:04.95 13:1539FREPUBLICMO5K
174690KIMEPPS 41:21.55 13:2045FMILLERMO5K
175479SUSANREYNOLDS 41:26.57 13:2249FNIXAMO5K
176376SARAHANN 41:27.17 13:2231FSPRINGFIELDMO5K
177390AMANDAJONES 41:28.25 13:2337FSPRINGFIELDMO5K
178684ADELYPIKE 41:34.29 13:259FREPUBLICMO5K
179683ELISHAPIKE 41:35.59 13:2529FREPUBLICMO5K
180681APRILPORTER 41:35.63 13:2528FREPUBLICMO5K
181712ASHLEYTERREY 42:15.90 13:3834FBILLINGS5K
182478DANCEYREYNOLDS 42:15.94 13:3826FNIXAMO5K
183491LISASMITH 43:02.27 13:5328FSPRINGFIELDMO5K
184463BRIANAO'NEILL 43:11.84 13:5625FGOLDEN CITYMO5K
185648SHANAO'NEILL 43:29.23 14:0255FLARNEDKS5K
186332KAYNINCOCHRAN 43:35.35 14:049FNIXAMO5K
187336KAYLACORNELIUS 43:39.38 14:0528FBOIS D ARCMO5K
188301CORBINABLES 43:49.37 14:0810MNEOSHOMO5K
189736ASHTINKEELING 44:19.22 14:1815FCLEVER5K
190364MELISSAFLOKSTRA 44:34.22 14:2336FNIXAMO5K
191741ASHLYNNPORTER 45:09.64 14:347FCLEVERMO5K
192610ABBYWHITEMAN 45:09.86 14:3415FCLEVERMO5K
193302DUSTINABLES 45:16.09 14:3634MNEOSHOMO5K
194300AIDENABLES 45:17.07 14:368MNEOSHOMO5K
195393ROYCEKAUFOLD 45:23.70 14:3810MSPRINGFIELDMO5K
196611AMYWHITEMAN 45:28.34 14:4036FCLEVERMO5K
197695ASHTONAVERS 45:49.85 14:4721FSTRAFFORDMO5K
198415MOLLYLOWERY 46:09.59 14:5328FLONG LANEMO5K
199414ANDREWLOWERY 46:26.49 14:5928MLONG LANEMO5K
200490JEFFREYSKWIRUT 46:26.64 14:5910MCLEVERMO5K
201498CHARITASTRICKLAND 46:32.60 15:0161FSPRINGFIELDMO5K
202329LYNNCLINE 46:32.72 15:0167MSPRINGFIELDMO5K
203418NATALIELURVEY 46:33.61 15:0153FSTRAFFORDMO5K
204474KELLIQUINN 46:34.56 15:0137FSTRAFFORDMO5K
205497ALLYSONSTRICKLAND 46:34.81 15:0128FSPRINGFIELDMO5K
206380AMYHELTON 46:35.36 15:0248FSTRAFFORDMO5K
207494FRANKIESTEVENS 47:32.46 15:2061FSPRINGFIELDMO5K
208398LOUISKLEEMAN 47:50.85 15:2683MMILLERMO5K
209699KARENMOLDEN 47:53.04 15:2746FREPUBLIC5K
210702KELLISNYDER 47:54.13 15:2751FREPUBLIC5K
211338DANYELLECOWEN 48:52.37 15:4627FSEDALIAMO5K
212483JANARICE 49:24.84 15:5645FCLEVERMO5K
213477JEANNIEREEVES 50:38.13 16:2049FBILLINGSMO5K
214325MICHELECARTER 50:38.88 16:2045FCLEVERMO5K
215372ANGELAGLENN 51:07.66 16:2955FSTRAFFORDMO5K
216644TROYSCHLIEM 51:53.67 16:4453MMONETTMO5K
217469JODIPINKLEY 51:54.34 16:4545FMONETTMO5K
218367JANICEGERLISKY 52:12.36 16:5051FSPRINGFIELDMO5K
219339KATIECRAIG 52:13.01 16:5137FBATTLEFIELDMO5K
220467PEGGYOWEN 53:05.11 17:0759FREPUBLICMO5K
221330DEBBIECLOPTON 53:05.28 17:0759FFAIR GROVEMO5K
222412TIMLOGAN 53:38.25 17:1845MNIXAMO5K
223605MELODYWARD 53:56.85 17:2456FNIXAMO5K
224640LINDALANGFORD 53:57.49 17:2452FCLEVERMO5K
225423DESIREEMASON 54:44.27 17:3945FTUNASMO5K
226403EVELYNLAMBETH 54:44.89 17:3954FFAIR GROVEMO5K
227404JIMLAMBETH 54:47.54 17:4053MFAIR GROVEMO5K
228321BARBARABURDETTE 54:58.05 17:4467FREPUBLICMO5K
229375JANICEGRIMES 55:29.74 17:5465FSPRINGFIELDMO5K
230306MARGARETANDERSON 55:30.28 17:5467FREPUBLICMO5K
231468GAYPARKS 55:31.70 17:5560FREPUBLICMO5K
(Event 334,283)

 

 Our site may not work properly with the browser you are using. To insure that all features and content are displayed properly, please consider disabling any ad or cookie blockers for our site. View our Privacy Policy for more information.

Shopping Cart
You can continue to add additional Event registrations or Marketplace merchandise to your purchase or proceed to checkout when you are ready.
Contact Us!